Sauk Centre, MN

6:40 AM CDT on October 22, 2019 (GMT -0500)
Sauk Centre

Weather History for KD39 - August, 2019

Change the Weather History Date:

Friday, August 30, 2019

  Actual Average (WUND) Record (WUND)
Temperature  
Mean Temperature 57 °F -  
Max Temperature 69 °F - - (-1)
Min Temperature 45 °F - - (-1)
Degree Days  
Heating Degree Days 8    
Growing Degree Days 7 (Base 50)    
Moisture  
Dew Point 47 °F    
Average Humidity 70    
Maximum Humidity 97    
Minimum Humidity 41    
Precipitation  
Precipitation 0.00 in - - ()
Sea Level Pressure  
Sea Level Pressure 30.17 in    
Wind  
Wind Speed 3 mph ()    
Max Wind Speed 18 mph    
Max Gust Speed 23 mph    
Visibility 10.0 miles    
Events      
Averages and records for this station are not official NWS values.
T = Trace of Precipitation, MM = Missing Value Source: Averaged Metar Reports

Daily Weather History Graph

Daily Weather History Graph

Search for Another Location

Airport or City:

Astronomy

Aug. 30, 2019 Rise Set
Actual Time 6:38 AM CDT 8:01 PM CDT
Civil Twilight 6:07 AM CDT 8:32 PM CDT
Nautical Twilight 5:29 AM CDT 9:09 PM CDT
Astronomical Twilight 4:49 AM CDT 9:49 PM CDT
Moon 6:37 AM CDT (8/30) 8:39 PM CDT (8/30)
Length of Visible Light 14h 25m
Length of Day
13h 23m
New Moon, 0% of the Moon is Illuminated
Aug 30
New Moon
Sep 5
First Quarter
Sep 13
Full
Sep 21
Last Quarter
Sep 28
New

Hourly Weather History & Observations

Time (CDT) Temp. Dew Point Humidity Pressure Visibility Wind Dir Wind Speed Gust Speed Precip Events Conditions
12:16 AM 50.9 °F 47.5 °F 88% 30.07 in 10.0 mi Calm Calm - N/A   Clear
12:35 AM 50.9 °F 46.9 °F 86% 30.07 in 10.0 mi Calm Calm - N/A   Clear
12:55 AM 50.9 °F 47.3 °F 87% 30.07 in 10.0 mi Calm Calm - N/A   Clear
12:56 AM 50.9 °F 47.3 °F 87% 30.07 in 10.0 mi Calm Calm - N/A   Clear
1:18 AM 50.0 °F 46.6 °F 88% 30.08 in 10.0 mi Calm Calm - N/A   Clear
1:36 AM 50.0 °F 46.6 °F 88% 30.07 in 10.0 mi Calm Calm - N/A   Clear
1:55 AM 50.4 °F 46.6 °F 87% 30.06 in 10.0 mi WNW 3.5 mph - N/A   Clear
2:15 AM 49.6 °F 46.6 °F 89% 30.06 in 10.0 mi Calm Calm - N/A   Clear
2:16 AM 49.6 °F 46.6 °F 89% 30.06 in 10.0 mi Calm Calm - N/A   Clear
2:35 AM 49.1 °F 46.4 °F 90% 30.07 in 10.0 mi Calm Calm - N/A   Clear
2:36 AM 49.1 °F 46.4 °F 90% 30.07 in 10.0 mi Calm Calm - N/A   Clear
2:55 AM 48.6 °F 46.2 °F 92% 30.07 in 10.0 mi Calm Calm - N/A   Clear
2:57 AM 48.6 °F 46.0 °F 91% 30.07 in 10.0 mi Calm Calm - N/A   Clear
3:15 AM 47.5 °F 45.5 °F 93% 30.09 in 10.0 mi West 3.5 mph - N/A   Clear
3:19 AM 47.5 °F 45.7 °F 93% 30.08 in 10.0 mi Calm Calm - N/A   Clear
3:38 AM 48.2 °F 46.0 °F 92% 30.09 in 10.0 mi West 3.5 mph - N/A   Clear
3:56 AM 48.4 °F 45.7 °F 90% 30.11 in 10.0 mi West 3.5 mph - N/A   Clear
4:16 AM 48.7 °F 46.0 °F 90% 30.11 in 10.0 mi Calm Calm - N/A   Clear
4:35 AM 48.9 °F 45.5 °F 88% 30.12 in 10.0 mi WNW 4.6 mph - N/A   Clear
4:36 AM 48.9 °F 45.5 °F 88% 30.12 in 10.0 mi NW 5.8 mph - N/A   Clear
4:55 AM 48.2 °F 45.1 °F 89% 30.13 in 10.0 mi Calm Calm - N/A   Clear
4:56 AM 48.2 °F 45.1 °F 89% 30.13 in 10.0 mi Calm Calm - N/A   Clear
5:15 AM 48.0 °F 45.5 °F 91% 30.12 in 10.0 mi NW 4.6 mph - N/A   Clear
5:20 AM 48.7 °F 46.0 °F 90% 30.12 in 10.0 mi WNW 4.6 mph - N/A   Clear
5:38 AM 47.3 °F 45.5 °F 93% 30.13 in 10.0 mi West 4.6 mph - N/A   Clear
5:57 AM 46.4 °F 44.8 °F 94% 30.13 in 10.0 mi Calm Calm - N/A   Clear
6:16 AM 46.8 °F 45.1 °F 94% 30.15 in 10.0 mi Calm Calm - N/A   Clear
6:35 AM 45.5 °F 44.4 °F 96% 30.16 in 10.0 mi Calm Calm - N/A   Clear
6:55 AM 45.9 °F 44.6 °F 95% 30.17 in 10.0 mi Calm Calm - N/A   Clear
6:56 AM 45.9 °F 44.4 °F 95% 30.17 in 10.0 mi Calm Calm - N/A   Clear
7:18 AM 46.0 °F 44.6 °F 95% 30.18 in 10.0 mi Calm Calm - N/A   Clear
7:37 AM 46.6 °F 45.7 °F 97% 30.19 in 10.0 mi Calm Calm - N/A   Clear
7:56 AM 48.7 °F 47.1 °F 94% 30.19 in 10.0 mi Calm Calm - N/A   Clear
8:15 AM 51.1 °F 48.7 °F 92% 30.19 in 10.0 mi Calm Calm - N/A   Clear
8:16 AM 51.1 °F 48.7 °F 92% 30.19 in 10.0 mi Calm Calm - N/A   Clear
8:35 AM 53.2 °F 49.6 °F 88% 30.19 in 10.0 mi WNW 4.6 mph - N/A   Clear
8:58 AM 55.6 °F 50.4 °F 83% 30.18 in 10.0 mi WNW 5.8 mph - N/A   Clear
9:17 AM 57.2 °F 50.0 °F 77% 30.18 in 10.0 mi WNW 4.6 mph - N/A   Clear
9:35 AM 58.6 °F 50.4 °F 74% 30.19 in 10.0 mi West 3.5 mph - N/A   Clear
9:56 AM 60.1 °F 50.5 °F 71% 30.20 in 10.0 mi WNW 3.5 mph - N/A   Clear
10:15 AM 61.7 °F 50.0 °F 65% 30.20 in 10.0 mi West 6.9 mph - N/A   Clear
10:16 AM 61.7 °F 50.0 °F 65% 30.20 in 10.0 mi West 6.9 mph - N/A   Clear
10:38 AM 63.3 °F 51.1 °F 64% 30.20 in 10.0 mi West 6.9 mph - N/A   Clear
10:56 AM 64.0 °F 50.7 °F 62% 30.21 in 10.0 mi WNW 6.9 mph - N/A   Clear
11:15 AM 65.3 °F 49.1 °F 56% 30.21 in 10.0 mi West 10.4 mph 16.1 mph N/A   Clear
11:35 AM 66.6 °F 47.3 °F 50% 30.21 in 10.0 mi WNW 13.8 mph - N/A   Clear
11:55 AM 67.1 °F 46.8 °F 48% 30.21 in 10.0 mi WNW 10.4 mph 17.3 mph N/A   Clear
11:56 AM 67.1 °F 46.8 °F 48% 30.21 in 10.0 mi WNW 6.9 mph - N/A   Scattered Clouds
12:15 PM 67.3 °F 46.2 °F 47% 30.21 in 10.0 mi WNW 10.4 mph 17.3 mph N/A   Scattered Clouds
12:20 PM 67.3 °F 46.4 °F 47% 30.21 in 10.0 mi NW 12.7 mph 17.3 mph N/A   Scattered Clouds
12:38 PM 67.3 °F 46.2 °F 47% 30.21 in 10.0 mi WNW 12.7 mph 18.4 mph N/A   Scattered Clouds
12:55 PM 67.1 °F 46.6 °F 48% 30.21 in 10.0 mi NNW 12.7 mph 19.6 mph N/A   Scattered Clouds
1:15 PM 67.5 °F 45.3 °F 45% 30.20 in 10.0 mi NW 15.0 mph 19.6 mph N/A   Clear
1:35 PM 68.7 °F 45.7 °F 44% 30.20 in 10.0 mi NW 17.3 mph 20.7 mph N/A   Clear
1:39 PM 68.2 °F 45.1 °F 43% 30.20 in 10.0 mi WNW 18.4 mph 23.0 mph N/A   Clear
1:58 PM 68.9 °F 46.6 °F 45% 30.20 in 10.0 mi WNW 12.7 mph 18.4 mph N/A   Scattered Clouds
2:15 PM 69.1 °F 44.2 °F 41% 30.20 in 10.0 mi NW 17.3 mph 21.9 mph N/A   Scattered Clouds
2:35 PM 68.7 °F 46.8 °F 45% 30.20 in 10.0 mi NNW 11.5 mph - N/A   Scattered Clouds
2:36 PM 68.7 °F 46.8 °F 45% 30.20 in 10.0 mi NNW 10.4 mph - N/A   Scattered Clouds
2:55 PM 67.6 °F 46.2 °F 46% 30.19 in 10.0 mi North 9.2 mph - N/A   Scattered Clouds
2:56 PM 67.3 °F 46.2 °F 47% 30.19 in 10.0 mi NNW 10.4 mph - N/A   Scattered Clouds
3:19 PM 69.1 °F 45.9 °F 43% 30.20 in 10.0 mi NNW 11.5 mph 17.3 mph N/A   Clear
3:36 PM 68.7 °F 45.7 °F 44% 30.20 in 10.0 mi NNW 11.5 mph 17.3 mph N/A   Clear
3:56 PM 68.9 °F 44.4 °F 41% 30.20 in 10.0 mi WNW 9.2 mph 19.6 mph N/A   Clear
4:15 PM 68.9 °F 45.9 °F 44% 30.20 in 10.0 mi NW 11.5 mph - N/A   Scattered Clouds
4:35 PM 69.1 °F 45.0 °F 42% 30.20 in 10.0 mi NW 11.5 mph - N/A   Clear
4:40 PM 68.5 °F 44.8 °F 42% 30.20 in 10.0 mi NW 10.4 mph - N/A   Clear
4:58 PM 69.1 °F 45.3 °F 42% 30.20 in 10.0 mi NW 8.1 mph - N/A   Clear
5:15 PM 69.1 °F 46.0 °F 44% 30.20 in 10.0 mi WNW 9.2 mph - N/A   Scattered Clouds
5:36 PM 68.9 °F 44.8 °F 42% 30.20 in 10.0 mi NW 6.9 mph 16.1 mph N/A   Scattered Clouds
5:55 PM 68.9 °F 46.4 °F 44% 30.20 in 10.0 mi NW 9.2 mph - N/A   Scattered Clouds
5:56 PM 68.9 °F 46.2 °F 44% 30.20 in 10.0 mi NNW 8.1 mph - N/A   Scattered Clouds
6:15 PM 68.4 °F 45.7 °F 44% 30.20 in 10.0 mi NNW 3.5 mph - N/A   Scattered Clouds
6:19 PM 68.4 °F 46.4 °F 45% 30.20 in 10.0 mi NNW 6.9 mph - N/A   Scattered Clouds
6:37 PM 68.0 °F 45.7 °F 45% 30.20 in 10.0 mi NW 5.8 mph - N/A   Clear
6:55 PM 67.3 °F 47.1 °F 48% 30.20 in 10.0 mi North 5.8 mph - N/A   Scattered Clouds
7:15 PM 65.8 °F 46.6 °F 50% 30.20 in 10.0 mi North 4.6 mph - N/A   Scattered Clouds
7:16 PM 65.7 °F 46.6 °F 50% 30.20 in 10.0 mi North 4.6 mph - N/A   Scattered Clouds
7:35 PM 64.2 °F 46.9 °F 53% 30.20 in 10.0 mi North 3.5 mph - N/A   Clear
7:36 PM 64.0 °F 47.1 °F 54% 30.20 in 10.0 mi North 3.5 mph - N/A   Clear
7:59 PM 61.0 °F 48.2 °F 63% 30.20 in 10.0 mi Calm Calm - N/A   Clear
8:16 PM 59.4 °F 48.2 °F 67% 30.20 in 10.0 mi Calm Calm - N/A   Clear
8:36 PM 59.7 °F 47.8 °F 65% 30.20 in 10.0 mi Calm Calm - N/A   Clear
8:55 PM 58.5 °F 48.6 °F 70% 30.21 in 10.0 mi Calm Calm - N/A   Clear
9:15 PM 57.6 °F 50.5 °F 77% 30.22 in 10.0 mi Calm Calm - N/A   Clear
9:16 PM 57.6 °F 50.4 °F 77% 30.22 in 10.0 mi Calm Calm - N/A   Clear
9:39 PM 57.7 °F 49.1 °F 73% 30.23 in 10.0 mi Calm Calm - N/A   Clear
9:55 PM 57.9 °F 49.5 °F 73% 30.24 in 10.0 mi Calm Calm - N/A   Clear
10:00 PM 57.2 °F 50.4 °F 78% 30.24 in 10.0 mi Calm Calm - N/A   Clear
10:18 PM 56.1 °F 50.7 °F 82% 30.24 in 10.0 mi Calm Calm - N/A   Clear
10:37 PM 55.4 °F 50.7 °F 84% 30.24 in 10.0 mi Calm Calm - N/A   Clear
10:56 PM 54.9 °F 50.9 °F 86% 30.25 in 10.0 mi Calm Calm - N/A   Clear
11:15 PM 54.7 °F 51.3 °F 88% 30.26 in 10.0 mi Calm Calm - N/A   Clear
11:16 PM 54.5 °F 51.3 °F 89% 30.26 in 10.0 mi Calm Calm - N/A   Clear
11:35 PM 54.5 °F 51.8 °F 91% 30.26 in 10.0 mi Calm Calm - N/A   Clear
11:55 PM 54.5 °F 50.5 °F 86% 30.26 in 10.0 mi Calm Calm - N/A   Clear
11:59 PM 54.5 °F 51.3 °F 89% 30.26 in 10.0 mi Calm Calm - N/A   Clear